[[{"header":{"parameterUnit":"m.s-1","parameterCategory":1,"la1":30.2991,"la2":30.254,"lo1":-89.0895,"lo2":-89.0444,"dy":0.0017,"dx":0.0017,"nx":28,"ny":28,"refTime":"2023-11-03T21:00:00:Z","depth":0,"parameterNumber":2,"parameterNumberName":"U-component_of_WINDS"},"data":[0,0,0,0,0,0,0,0,0,0,0,0,0,0,0,0,0,0,0,0,0,0,0,0,0,0,0,0,0,0,0,0,0,0,0,0,0,0,0,0,0,0,0,0,0,0,0,0,0,0,0,0,0,0,0,0,0,0,-0.7549,-0.7548,0,-0.7445,-0.7444,-0.7443,-0.7386,-0.7386,-0.7386,-0.7386,-0.7279,-0.7276,-0.7274,0,0,0,0,0,0,0,0,0,0,0,0,0,-0.77,-0.7697,-0.7549,-0.7548,-0.7547,-0.7446,-0.7444,-0.7443,-0.7386,-0.7386,-0.7386,-0.7386,-0.728,-0.7277,-0.7274,0,0,0,0,0,0,0,0,0,0,0,0,0,-0.7619,-0.7696,-0.755,-0.7506,-0.7502,-0.7446,-0.7444,-0.7442,-0.7386,-0.7386,-0.7386,-0.7386,-0.7281,-0.7277,-0.7273,-0.7252,0,0,-0.7261,-0.7259,0,0,0,0,0,0,0,0,-0.7624,-0.7613,-0.7514,-0.7509,-0.7504,-0.7429,-0.7458,-0.7379,-0.7386,-0.743,-0.7386,-0.7386,-0.7329,-0.7321,-0.7302,-0.7247,-0.7243,-0.726,-0.7258,-0.7256,-0.7255,0,0,0,0,0,0,0,-0.7629,-0.7618,-0.7508,-0.7513,-0.7506,-0.7492,-0.7481,-0.7443,-0.7382,-0.7426,-0.7422,-0.741,-0.7326,-0.7306,-0.7299,-0.7241,-0.726,-0.7257,-0.7254,-0.7253,-0.7166,-0.7166,0,0,0,0,0,0,-0.7642,-0.7623,-0.7511,-0.7505,-0.7564,-0.749,-0.7477,-0.7453,-0.7382,-0.7371,-0.7411,-0.7408,-0.7313,-0.7304,-0.7295,-0.7267,-0.7256,-0.7252,-0.725,-0.7165,-0.7166,-0.7166,0,0,0,0,0,0,-0.7645,-0.7632,-0.7516,-0.7563,-0.7547,-0.7488,-0.7461,-0.7451,-0.7431,-0.737,-0.7359,-0.7401,-0.7312,-0.7301,-0.7264,-0.7262,-0.725,-0.7247,-0.7165,-0.7165,-0.7166,-0.721,0,0,0,0,0,0,-0.765,-0.7634,-0.7625,-0.7563,-0.7544,-0.7486,-0.7461,-0.7449,-0.7424,-0.742,-0.7359,-0.7348,-0.7311,-0.727,-0.726,-0.7257,-0.7244,-0.7165,-0.7165,-0.7166,-0.7209,-0.7212,-0.7215,0,0,0,0,0,-0.7655,-0.7641,-0.7625,-0.7612,-0.7532,-0.7486,-0.7475,-0.7433,-0.7424,-0.7415,-0.7377,-0.735,-0.7264,-0.7267,-0.7254,-0.725,-0.7165,-0.7165,-0.7166,-0.7207,-0.7211,-0.7215,0,0,0,0,0,0,-0.7704,-0.7632,-0.7613,-0.7579,-0.7539,-0.7476,-0.7463,-0.7439,-0.74,-0.7398,-0.7347,-0.7334,-0.7302,-0.7272,-0.7276,-0.7227,-0.7212,-0.721,-0.7248,-0.7251,-0.7254,-0.7262,-0.724,0,0,0,0,0,-0.7711,-0.7679,-0.7618,-0.7594,-0.7575,-0.7523,-0.7501,-0.7472,-0.7429,-0.7412,-0.737,-0.733,-0.7293,-0.727,-0.7234,-0.7204,-0.7191,-0.7195,-0.7198,-0.7201,-0.72,-0.7184,-0.7185,-0.7167,-0.7167,-0.7167,0,0,-0.7725,-0.7681,-0.7664,-0.7602,-0.7568,-0.7537,-0.7509,-0.7477,-0.7453,-0.7407,-0.737,-0.7338,-0.7289,-0.7256,-0.7239,-0.723,-0.7202,-0.7201,-0.7204,-0.7201,-0.7184,-0.7186,-0.7188,-0.7167,-0.7167,-0.7167,0,0,-0.7734,-0.7698,-0.7674,-0.764,-0.7589,-0.7555,-0.755,-0.7491,-0.7469,-0.7431,-0.7396,-0.7367,-0.7305,-0.7272,-0.7248,-0.7247,-0.7221,-0.7236,-0.7252,-0.7237,-0.7238,-0.7239,-0.724,-0.7241,-0.7235,-0.7235,-0.7235,0,-0.7757,-0.7709,-0.7665,-0.7635,-0.7609,-0.7566,-0.7542,-0.7512,-0.7452,-0.7435,-0.7426,-0.7349,-0.7313,-0.7272,-0.7272,-0.7253,-0.7246,-0.7243,-0.7242,-0.7242,-0.7243,-0.7243,-0.7243,-0.7237,-0.7237,-0.7237,-0.7236,0,-0.774,-0.7708,-0.7694,-0.7638,-0.7611,-0.7584,-0.7537,-0.7515,-0.7489,-0.7456,-0.7419,-0.7374,-0.7328,-0.7316,-0.729,-0.7273,-0.7269,-0.7251,-0.7235,-0.7247,-0.7247,-0.7246,-0.724,-0.724,-0.7239,-0.7238,0,0,-0.7776,-0.7697,-0.7693,-0.7668,-0.7609,-0.7583,-0.7555,-0.7511,-0.7493,-0.7454,-0.7429,-0.7379,-0.7363,-0.7335,-0.7305,-0.7292,-0.7296,-0.7276,-0.7274,-0.7282,-0.7275,-0.7289,-0.729,-0.7279,-0.7278,-0.7278,-0.728,0,-0.7777,-0.7725,-0.7686,-0.7649,-0.7619,-0.7578,-0.7554,-0.7516,-0.7485,-0.7455,-0.7421,-0.7387,-0.7367,-0.735,-0.7335,-0.7298,-0.7294,-0.7298,-0.7257,-0.7256,-0.7271,-0.7289,-0.7304,-0.7307,-0.7279,-0.7279,-0.7279,0,-0.7771,-0.7734,-0.7695,-0.7641,-0.7627,-0.7606,-0.7563,-0.7535,-0.7491,-0.747,-0.744,-0.7409,-0.7378,-0.7366,-0.7324,-0.7327,-0.7308,-0.7288,-0.7287,-0.7282,-0.7268,-0.7286,-0.7307,-0.7308,-0.7278,-0.7278,-0.7278,0,-0.7803,-0.7743,-0.7712,-0.7691,-0.7627,-0.7614,-0.7586,-0.7543,-0.7519,-0.7482,-0.7467,-0.7426,-0.7404,-0.7374,-0.7334,-0.7328,-0.7297,-0.728,-0.7279,-0.728,-0.7274,-0.7275,-0.7294,-0.7261,-0.7261,-0.7261,-0.7261,0,-0.7809,-0.7786,-0.7725,-0.7706,-0.768,-0.7636,-0.7611,-0.7581,-0.7543,-0.7517,-0.748,-0.7457,-0.7405,-0.7376,-0.7345,-0.7316,-0.7306,-0.7288,-0.728,-0.7292,-0.7295,-0.7279,-0.7278,-0.7261,-0.7261,-0.7261,-0.7261,0,-0.784,-0.7798,-0.7761,-0.7704,-0.769,-0.7673,-0.7625,-0.7605,-0.7573,-0.7542,-0.7532,-0.7481,-0.7445,-0.7402,-0.7352,-0.7331,-0.7306,-0.7293,-0.7321,-0.7316,-0.7318,-0.7319,-0.7328,-0.7327,-0.7295,-0.7295,-0.7295,0,-0.7846,-0.7828,-0.777,-0.7751,-0.7725,-0.7694,-0.767,-0.7626,-0.7603,-0.7553,-0.754,-0.7502,-0.7469,-0.7414,-0.7373,-0.7335,-0.7322,-0.7328,-0.7316,-0.7329,-0.7324,-0.7326,-0.7324,-0.7331,-0.7332,-0.7332,-0.7333,0,-0.7863,-0.7844,-0.7811,-0.7772,-0.7745,-0.7712,-0.7677,-0.7663,-0.7612,-0.7588,-0.7552,-0.7526,-0.7477,-0.744,-0.7397,-0.7369,-0.7343,-0.7337,-0.7335,-0.7347,-0.7364,-0.7356,-0.733,-0.7337,-0.7336,-0.7336,-0.7336,-0.7336,-0.7882,-0.7865,-0.7822,-0.7787,-0.7757,-0.7726,-0.7705,-0.7671,-0.764,-0.7596,-0.7572,-0.7537,-0.7495,-0.7435,-0.7409,-0.7381,-0.7372,-0.7368,-0.7368,-0.7368,-0.7372,-0.7368,-0.7373,-0.7373,-0.7373,-0.7373,-0.7373,0,-0.7898,-0.7869,-0.7837,-0.7791,-0.7764,-0.7742,-0.7703,-0.7682,-0.7652,-0.7615,-0.7584,-0.7543,-0.7508,-0.7465,-0.7427,-0.7413,-0.74,-0.7404,-0.7405,-0.74,-0.7382,-0.7388,-0.7416,-0.7416,-0.7416,-0.7416,-0.7416,-0.7416,-0.7903,-0.7873,-0.7849,-0.7805,-0.7776,-0.7741,-0.7721,-0.7693,-0.7664,-0.762,-0.759,-0.7563,-0.7524,-0.7483,-0.745,-0.7438,-0.7427,-0.7435,-0.742,-0.7404,-0.7401,-0.7397,-0.7403,-0.7433,-0.7433,-0.744,-0.744,-0.744]},{"header":{"parameterUnit":"m.s-1","parameterCategory":1,"la1":30.2991,"la2":30.254,"lo1":-89.0895,"lo2":-89.0444,"dy":0.0017,"dx":0.0017,"nx":28,"ny":28,"refTime":"2023-11-03T21:00:00:Z","depth":0,"parameterNumber":3,"parameterNumberName":"V-component_of_WINDS"},"data":[0,0,0,0,0,0,0,0,0,0,0,0,0,0,0,0,0,0,0,0,0,0,0,0,0,0,0,0,0,0,0,0,0,0,0,0,0,0,0,0,0,0,0,0,0,0,0,0,0,0,0,0,0,0,0,0,0,0,1.0072,1.0071,0,1.0029,1.0028,1.0028,0.9993,0.9992,0.9992,0.9991,0.9946,0.9945,0.9945,0,0,0,0,0,0,0,0,0,0,0,0,0,1.0122,1.0121,1.0072,1.0071,1.0071,1.0029,1.0028,1.0027,0.9993,0.9992,0.9992,0.9991,0.9947,0.9946,0.9945,0,0,0,0,0,0,0,0,0,0,0,0,0,1.0092,1.0121,1.0072,1.0048,1.0046,1.0029,1.0028,1.0027,0.9993,0.9992,0.9992,0.9991,0.9947,0.9946,0.9944,0.9947,0,0,0.994,0.994,0,0,0,0,0,0,0,0,1.0094,1.009,1.0052,1.005,1.0047,1.0015,1.0029,1.0,0.9993,1.0013,0.9991,0.9991,0.997,0.9966,0.996,0.9945,0.9943,0.994,0.994,0.9939,0.9939,0,0,0,0,0,0,0,1.0096,1.0092,1.0055,1.0052,1.0049,1.0039,1.0034,1.0024,0.9995,1.0011,1.0008,1.0004,0.9968,0.9961,0.9958,0.9942,0.994,0.9939,0.9938,0.9938,0.9925,0.9925,0,0,0,0,0,0,1.0102,1.0094,1.0056,1.0053,1.0069,1.0039,1.0033,1.0026,0.9995,0.999,1.0004,1.0002,0.9963,0.996,0.9956,0.9955,0.9939,0.9938,0.9937,0.9924,0.9925,0.9925,0,0,0,0,0,0,1.0103,1.0099,1.0058,1.0073,1.0067,1.0038,1.0031,1.0026,1.0018,0.999,0.9984,1.0002,0.9963,0.9958,0.9949,0.9953,0.9937,0.9936,0.9924,0.9924,0.9925,0.9955,0,0,0,0,0,0,1.0104,1.0099,1.0101,1.0073,1.0066,1.0052,1.0031,1.0025,1.0016,1.0013,0.9986,0.9981,0.9962,0.9951,0.9948,0.9951,0.9935,0.9923,0.9924,0.9925,0.9953,0.9956,0.9959,0,0,0,0,0,1.0106,1.0111,1.0101,1.0097,1.0067,1.0052,1.0048,1.0026,1.0017,1.0017,0.9998,0.9982,0.9954,0.9951,0.9946,0.995,0.9923,0.9924,0.9925,0.9952,0.9956,0.9959,0,0,0,0,0,0,1.014,1.0107,1.0096,1.0092,1.0075,1.0047,1.0047,1.0031,1.0017,1.0015,0.9988,0.9982,0.9975,0.9961,0.9959,0.9949,0.9936,0.9936,0.9958,0.9961,0.9964,0.9967,0.9934,0,0,0,0,0,1.0147,1.0139,1.011,1.0109,1.0101,1.0076,1.0068,1.0052,1.0034,1.0027,1.0008,0.999,0.9976,0.9968,0.9955,0.9951,0.9944,0.9951,0.9954,0.9957,0.9957,0.9952,0.9954,0.9928,0.9928,0.9928,0,0,1.0162,1.0143,1.0139,1.0115,1.0101,1.0091,1.007,1.0061,1.0053,1.0025,1.0015,1.0,0.9978,0.9971,0.9967,0.996,0.9962,0.9958,0.996,0.9959,0.9953,0.9955,0.9957,0.9929,0.9929,0.9929,0,0,1.0183,1.0168,1.0165,1.015,1.0128,1.0111,1.011,1.0083,1.0072,1.0061,1.0039,1.0029,1.0008,0.9992,0.9982,0.9995,0.9978,0.9991,1.0006,1.0001,1.0003,1.0005,1.0007,1.0009,0.9992,0.9992,0.9992,0,1.0203,1.0189,1.0165,1.0157,1.0147,1.0121,1.0116,1.0103,1.0078,1.007,1.0063,1.0033,1.0017,1.0005,1.0008,1.0001,0.9998,0.9994,1.0005,1.0006,1.0007,1.001,1.0011,0.9993,0.9993,0.9993,0.9993,0,1.0214,1.0204,1.0204,1.0179,1.0169,1.0163,1.0137,1.0129,1.0114,1.0097,1.0085,1.0064,1.0045,1.0041,1.0027,1.0026,1.0022,1.001,0.9996,1.0012,1.0013,1.0014,0.9996,0.9995,0.9994,0.9994,0,0,1.0255,1.0217,1.0217,1.0205,1.0178,1.0169,1.0161,1.0142,1.0135,1.0118,1.0109,1.009,1.0078,1.0066,1.0049,1.0045,1.0054,1.0033,1.0032,1.0036,1.005,1.0058,1.006,1.0043,1.0044,1.0044,1.0051,0,1.027,1.0255,1.0233,1.0224,1.0213,1.0188,1.018,1.0162,1.0146,1.0133,1.0115,1.0101,1.0087,1.0079,1.0074,1.0054,1.0056,1.0054,1.0034,1.0033,1.0039,1.0061,1.007,1.0079,1.0052,1.0052,1.0052,0,1.0286,1.027,1.026,1.0232,1.0226,1.022,1.02,1.0189,1.0167,1.0155,1.0141,1.0123,1.0111,1.0099,1.0082,1.008,1.0071,1.006,1.0059,1.0056,1.0043,1.0057,1.0081,1.0082,1.0053,1.0053,1.0053,0,1.0314,1.029,1.0281,1.0271,1.0239,1.0235,1.0221,1.0199,1.0188,1.017,1.0163,1.0144,1.0133,1.0118,1.0094,1.0088,1.0079,1.0066,1.0067,1.0068,1.0066,1.0066,1.0088,1.0062,1.0062,1.0062,1.0062,0,1.0333,1.0327,1.0293,1.0287,1.0279,1.0254,1.0247,1.023,1.021,1.02,1.0177,1.0167,1.0137,1.0123,1.0105,1.0092,1.0088,1.0077,1.0071,1.0078,1.0079,1.0071,1.0069,1.0062,1.0062,1.0062,1.0062,0,1.0363,1.034,1.0327,1.0298,1.029,1.0286,1.0259,1.0252,1.0234,1.022,1.0216,1.0187,1.0169,1.0144,1.0119,1.0107,1.0096,1.0089,1.0104,1.01,1.0103,1.0102,1.0119,1.0119,1.0095,1.0095,1.0095,0,1.0375,1.037,1.034,1.0331,1.0318,1.0305,1.0294,1.0268,1.0257,1.0231,1.0226,1.0207,1.019,1.0163,1.0139,1.0119,1.011,1.0117,1.0107,1.0113,1.0108,1.0108,1.0107,1.0119,1.012,1.012,1.012,0,1.0399,1.0388,1.0373,1.0354,1.0341,1.0325,1.0307,1.0301,1.0271,1.026,1.0242,1.0229,1.0203,1.0183,1.016,1.0144,1.0127,1.0124,1.0123,1.0129,1.0137,1.0131,1.0109,1.0123,1.0123,1.0123,1.0123,1.0123,1.042,1.0413,1.0391,1.0374,1.0358,1.0342,1.0333,1.0313,1.0298,1.0275,1.0261,1.0243,1.0219,1.0186,1.0171,1.0156,1.0149,1.0148,1.0148,1.0147,1.0149,1.014,1.0152,1.0152,1.0151,1.0151,1.0151,0,1.0441,1.0425,1.041,1.0386,1.0373,1.0358,1.0338,1.0327,1.0312,1.0292,1.0275,1.0254,1.0234,1.0209,1.0187,1.018,1.0171,1.0175,1.0174,1.0171,1.0157,1.016,1.0182,1.0182,1.0182,1.0182,1.0182,1.0182,1.045,1.0438,1.0424,1.0403,1.0387,1.037,1.0359,1.0343,1.0327,1.0304,1.0287,1.0271,1.0248,1.0224,1.0205,1.0198,1.019,1.0196,1.0187,1.0175,1.0172,1.0169,1.0171,1.0195,1.0195,1.0201,1.0201,1.0201]}]]